Location: Gälforsberget
(66.6500°N, 22.4167°E)
Time: 17:27:44
(UTC+00:00)

Cosmos 2322 - Pass Details

Date: 11 April 2026
Orbit: 839 x 854 km, 71.0° (Epoch: 16 May)

Event Time Altitude Azimuth Distance (km) Brightness Sun altitude
Rises 22:33:42 0° 256° (WSW) 3,426 6.7 -14.8°
Reaches altitude 10° 22:36:11 10° 260° (W) 2,492 6.0 -14.8°
Maximum altitude 22:41:53 64° 342° (NNW) 950 4.2 -14.7°
Drops below altitude 10° 22:47:35 10° 64° (ENE) 2,497 6.6 -14.7°
Sets 22:50:05 0° 68° (ENE) 3,434 7.3 -14.7°
